Location: Rowland
(34.5359°N, 79.2929°W)
Time: 19:54:19
(UTC+00:00)

Transit 2A Rocket - Pass Details

Date: 04 October 2022
Orbit: 589 x 911 km, 66.7° (Epoch: 03 December)

Event Time Altitude Azimuth Distance (km) Brightness Sun altitude
Rises 11:21:44 0° 244° (WSW) 2,840 7.4 0.7°
Reaches altitude 10° 11:24:39 10° 265° (W) 1,920 6.5 1.3°
Maximum altitude 11:27:30 17° 307° (NW) 1,506 6.1 1.9°
Drops below altitude 10° 11:30:20 10° 349° (N) 1,923 6.9 2.5°
Sets 11:33:17 0° 10° (N) 2,846 8.0 3.1°
